Location: Grange Verzio
(44.5000°N, 6.9833°E)
Time: 00:38:36
(UTC+00:00)

ATLAS 2AS CENTAUR R/B - Pass Details

Date: 01 February 2023
Orbit: 986 x 1226 km, 63.7° (Epoch: 31 January)

Event Time Altitude Azimuth Distance (km) Brightness Sun altitude
Rises 18:02:30 0° 323° (NW) 3,972 6.1 -14.8°
Reaches altitude 10° 18:05:17 10° 325° (NW) 2,975 5.4 -15.3°
Maximum altitude 18:12:19 77° 51° (NE) 1,087 2.6 -16.5°
Drops below altitude 10° 18:18:55 10° 138° (SE) 2,799 4.6 -17.7°
Enters shadow 18:19:50 - 139° (SE) 3,129 4.8 -17.8°
